Flag for Kazakhstan Weather past 2 weeks in Karaganda, Kazakhstan

Now
63 °F

Passing clouds.


Feels Like: 63 °F
Forecast: 43 / 62 °F
Wind: 6 mph from Southwest

Location: Karaganda


UV Index: 3 (Moderate)

Visibility: N/A


Pressure: 30.27 "Hg

Humidity: 20%

Dew point: 21 °F

Location of KaragandaLocation

Historic Weather in Karaganda

°F

Karaganda temperature yesterday

Maximum temperature yesterday: 57 °F (at 4:00 PM)
Minimum temperature yesterday: 23 °F (at 4:30 AM)
Average temperature yesterday: 41 °F

Past Weeks' High & Low Weather Summary

 TemperatureHumidityPressure
High63 °F (Apr 18, 3:00 PM)100% (Apr 4, 4:00 AM)30.45 "Hg (Apr 4, 4:00 AM)
Low21 °F (Apr 12, 5:30 AM)19% (Apr 18, 4:00 PM)29.50 "Hg (Apr 10, 11:30 AM)
Average37 °F69%30.13 "Hg
* Reported Apr 3 4:00 PM — Apr 18 4:00 PM, Karaganda, Weather by CustomWeather, © 2014

Note: Actual official high and low records may vary slightly from our data, if they occured in-between our weather recording intervals... More about our weather records

Advertising

Historic Weather Conditions — Data for Previous 24 hours

 ConditionsComfort  
Time TempWeatherWind HumidityBarometerVisibility
4:00 PM
Apr 18
63 °FPassing clouds.8 mph19%30.30 "HgN/A
3:30 PM63 °FSunny.3 mph20%30.30 "Hg10 mi
3:00 PM63 °FPassing clouds.6 mph22%30.30 "HgN/A
2:30 PM61 °FPassing clouds.6 mph23%30.33 "HgN/A
2:00 PM59 °FPassing clouds.6 mph23%30.33 "HgN/A
1:30 PM61 °FSunny.3 mph25%30.33 "Hg10 mi
1:00 PM59 °FSunny.1 mph23%30.33 "Hg10 mi
12:30 PM57 °FPassing clouds.6 mph27%30.36 "HgN/A
12:00 PM59 °FSunny.3 mph27%30.36 "Hg10 mi
11:30 AM57 °FSunny.3 mph27%30.36 "Hg10 mi
11:00 AM55 °FSunny.3 mph28%30.36 "Hg10 mi
10:30 AM55 °FPassing clouds.3 mph33%30.36 "HgN/A
10:00 AM54 °FSunny.1 mph38%30.39 "Hg10 mi
9:30 AM50 °FSunny.1 mph40%30.39 "Hg10 mi
9:00 AM48 °FSunny.1 mph46%30.39 "Hg10 mi
8:30 AM43 °FSunny.1 mph66%30.39 "Hg10 mi
8:00 AM37 °FSunny.1 mph81%30.39 "Hg10 mi
7:30 AM32 °FSunny.3 mph87%30.39 "Hg10 mi
7:00 AM27 °FSunny.3 mph93%30.36 "Hg10 mi
6:30 AM25 °FSunny.6 mph93%30.36 "Hg10 mi
6:00 AM27 °FClear.6 mph93%30.36 "Hg10 mi
5:30 AM27 °FClear.3 mph93%30.36 "Hg10 mi
5:00 AM28 °FClear.6 mph93%30.36 "Hg10 mi
4:30 AM30 °FClear.6 mph93%30.36 "Hg10 mi
4:00 AM30 °FClear.6 mph86%30.36 "Hg10 mi
3:30 AM30 °FClear.6 mph93%30.33 "Hg10 mi
3:00 AM30 °FClear.3 mph93%30.33 "Hg10 mi
2:30 AM30 °FClear.3 mph93%30.33 "Hg10 mi
2:00 AM32 °FClear.6 mph87%30.33 "Hg10 mi
1:30 AM34 °FClear.6 mph87%30.33 "Hg10 mi
1:00 AM34 °FClear.6 mph87%30.36 "Hg10 mi
12:30 AM34 °FClear.6 mph87%30.33 "Hg10 mi
12:00 AM34 °FClear.6 mph87%30.33 "Hg10 mi
11:00 PM
Apr 17
34 °FClear.3 mph87%30.33 "Hg6 mi
10:30 PM36 °FClear.No wind81%30.33 "Hg10 mi
10:00 PM37 °FClear.3 mph81%30.33 "Hg10 mi
9:30 PM39 °FClear.1 mph75%30.33 "Hg10 mi
9:00 PM43 °FClear.3 mph66%30.33 "Hg10 mi
8:30 PM46 °FClear.1 mph62%30.33 "Hg10 mi
8:00 PM48 °FSunny.3 mph54%30.33 "Hg10 mi
7:30 PM52 °FSunny.3 mph41%30.33 "Hg10 mi
7:00 PM55 °FPassing clouds.3 mph31%30.33 "HgN/A
6:30 PM57 °FPassing clouds.6 mph27%30.33 "HgN/A
6:00 PM57 °FPassing clouds.6 mph25%30.33 "HgN/A
5:30 PM57 °FSunny.6 mph27%30.33 "Hg10 mi
5:00 PM57 °FSunny.3 mph27%30.33 "Hg10 mi
Weather by CustomWeather, © 2014

See weather overview